Torna al catalogo

VM-3.1

AttivoScienzaSSO
NORAD 67273·PAYLOAD·🇷🇺 Russia
Questo nome del satellite non è ancora stato confermato da fonti ufficiali.

Lanciato Dec 28, 2025 da Vostochny Cosmodrome

Loading…

Prossimi Passaggi (prossime 24 ore)

TLE

AggiornatoSource: Space-Track

Epoca: Sep 13, 2026, 18:42 UTC

1 67273U 25313AB  26256.77984993  .00002146  00000-0  98010-4 0  9991
2 67273  97.3885 329.6108 0015558  63.9640 296.3196 15.21565129 39407

Traccia VM-3.1 in tempo reale con AllMySat

Download on the App Store